SCP
0 0 0 0 0 0 0 0 0 0 0 0 0 0 0 0 0 0 0 0 1 1 2 2 2 3 4 4 4 4 4 4 4 4 4 4 3 3 3 3 2 2 2 2 1 1 1 1 1
0 0 0 0 0 0 0 0 0 0 0 0 0 0 0 0 0 0 0 0 1 1 2 2 2 3 4 4 4 4 4 3 3 4 4 4 3 3 3 3 3 3 2 2 1 1 1 1 1
0 0 0 0 0 0 0 0 0 0 0 0 0 0 0 0 0 0 0 1 1 2 2 2 2 3 4 4 4 4 4 4 4 4 4 4 4 3 3 3 3 3 3 2 2 1 1 1 0
0 0 1 0 0 0 0 0 0 0 0 0 0 0 0 0 0 0 1 1 2 2 2 3 3 4 5 5 5 4 4 4 4 4 4 4 4 4 4 4 4 4 3 3 2 1 1 1 0
0 0 1 0 0 0 0 0 0 0 0 0 0 0 0 0 1 1 2 2 2 2 2 3 4 5 7 7 6 5 4 4 4 4 4 4 4 4 4 4 4 4 3 2 2 1 1 0 0
0 0 0 0 0 0 0 0 0 0 0 0 0 0 0 0 1 2 2 3 3 3 3 3 4 6 8 8 7 6 5 5 4 4 4 5 4 4 4 4 4 4 3 2 2 1 1 0 0
0 0 0 0 0 0 0 0 0 0 0 0 0 0 0 1 2 2 3 3 3 3 3 3 4 6 7 7 6 6 5 5 4 4 4 5 4 4 4 4 4 3 3 2 2 1 1 0 0
0 0 0 0 0 0 0 0 0 0 0 0 0 0 0 1 2 3 3 3 3 2 3 3 4 5 6 6 6 5 5 5 4 4 4 4 4 4 3 3 3 3 3 2 2 1 1 0 0
0 0 0 0 0 0 0 0 0 0 0 0 0 0 0 1 2 3 4 4 3 2 3 4 5 5 6 5 5 5 5 5 4 4 4 4 3 3 3 3 3 3 3 2 2 1 1 0 0
0 0 0 0 0 0 0 0 0 0 0 0 0 0 1 2 3 3 4 4 3 2 3 4 4 5 5 5 5 5 5 5 4 3 3 3 3 3 3 3 2 2 2 2 1 1 1 0 0
0 0 0 0 0 0 0 0 0 0 0 0 0 1 2 3 4 4 4 3 3 2 2 3 4 4 4 4 5 5 5 5 4 3 3 3 3 3 3 3 2 2 2 1 1 1 0 0 0
0 0 0 0 0 0 0 0 0 0 0 0 0 1 2 3 3 4 4 4 3 3 2 3 3 4 3 3 4 5 5 5 4 3 3 3 3 3 3 3 2 2 1 1 1 0 0 0 0
0 0 0 0 0 0 0 0 0 0 0 0 0 1 1 2 2 3 4 4 3 3 3 3 3 3 3 3 3 4 4 4 4 3 3 3 3 3 3 4 3 2 1 1 0 0 0 0 0
0 0 0 0 0 0 0 0 0 0 0 0 0 1 1 1 1 2 3 3 3 3 3 3 3 3 3 2 3 3 4 3 3 3 2 3 2 2 3 3 3 2 1 1 0 0 0 0 0
0 0 0 0 0 0 0 0 0 0 0 0 0 0 1 1 1 1 2 2 3 3 3 4 3 3 2 2 3 3 3 3 2 2 2 2 2 2 2 3 3 2 1 1 0 0 0 0 0
0 0 0 0 0 0 0 0 0 0 0 0 0 0 0 0 0 0 1 2 2 3 3 4 4 3 3 2 3 3 3 3 2 2 2 2 2 1 2 2 2 2 1 0 0 0 0 0 0
0 0 0 0 0 0 0 0 0 0 0 0 0 0 0 0 0 0 1 1 2 3 3 4 4 4 3 3 3 3 3 3 2 2 2 2 2 1 1 1 1 1 1 0 0 0 0 0 0
0 0 0 0 0 0 0 0 0 0 0 0 0 0 0 0 0 0 0 1 1 2 3 3 4 4 4 3 3 3 3 3 2 2 2 2 1 1 1 1 1 1 1 0 0 0 0 0 0
0 0 0 0 0 0 0 0 0 0 0 0 0 0 0 0 0 0 0 1 1 2 2 3 4 4 4 3 3 3 3 2 2 2 1 1 1 1 1 1 1 1 1 0 0 0 0 0 0
0 0 0 0 0 0 0 0 0 0 0 0 0 0 0 0 0 0 0 0 1 2 2 2 3 3 3 3 3 3 3 2 2 1 1 1 1 1 1 1 1 1 1 0 0 0 0 0 0
0 0 0 0 0 0 0 0 0 0 0 0 0 0 0 0 0 0 0 0 1 1 2 2 2 3 3 3 3 3 2 2 1 1 1 1 1 1 1 1 1 1 1 0 0 0 0 0 0
0 0 0 0 0 0 0 0 0 0 0 0 0 0 0 0 0 0 0 0 1 1 1 2 2 2 2 3 3 2 2 2 1 1 1 1 1 1 1 1 1 1 1 0 0 0 0 0 0
0 0 0 0 0 0 0 0 0 0 0 0 0 0 0 1 0 0 0 1 1 1 1 2 2 2 2 2 2 2 2 1 1 1 1 1 1 1 0 0 0 1 0 0 0 0 0 0 0
0 0 0 0 0 0 0 0 0 0 0 0 0 0 0 1 1 0 0 1 1 1 2 2 2 2 2 2 2 2 1 1 1 1 1 1 1 1 0 0 1 1 1 0 0 0 0 0 0
0 0 0 0 0 0 0 0 0 0 0 0 0 0 0 1 1 1 1 1 1 2 2 1 1 2 2 2 2 1 1 1 1 1 1 1 1 1 1 0 1 1 1 1 0 0 0 0 0
0 0 0 0 0 0 0 0 0 0 0 0 0 0 0 1 1 1 1 1 1 2 2 1 1 1 1 2 2 1 1 1 0 1 1 1 1 1 1 0 1 1 1 1 1 0 0 0 0
0 0 0 0 0 0 0 0 0 0 0 0 0 0 0 0 1 1 1 1 1 2 2 1 1 1 1 2 2 2 1 0 0 0 0 0 1 1 1 0 0 1 1 1 1 1 0 0 0
0 0 0 0 0 0 0 0 0 0 0 0 0 0 0 0 1 1 1 1 1 2 2 1 1 1 1 1 2 1 1 0 0 0 0 0 0 1 1 0 0 0 1 1 1 1 0 0 0
0 0 0 0 0 0 0 0 0 0 0 0 0 0 0 0 0 0 0 1 1 2 2 1 1 1 1 1 2 1 1 0 0 0 0 0 0 0 0 0 0 0 0 1 1 1 0 0 0
0 0 0 0 0 0 0 0 0 0 0 0 0 0 0 0 0 0 0 0 1 1 1 1 1 0 1 1 1 1 1 0 0 0 0 0 0 0 0 0 0 0 0 0 1 0 0 0 0
Wind_Speed
8 5 2 4 4 2 4 5 4 3 3 3 2 1 3 3 2 2 2 1 4 7 9 12 14 14 15 15 16 16 16 16 16 17 17 17 18 18 17 17 17 17 17 16 16 16 16 15 15
3 2 4 4 3 3 6 6 6 6 5 4 4 1 1 1 1 2 1 1 5 7 8 9 13 14 14 15 15 16 16 17 17 17 17 17 18 18 18 17 17 17 17 16 16 16 15 15 15
4 1 3 3 4 7 6 4 6 6 5 3 3 3 1 1 1 1 1 3 5 6 7 9 13 14 15 15 15 15 16 17 17 17 17 18 18 18 17 17 17 17 17 17 16 16 15 15 15
2 3 2 2 8 7 5 3 4 5 5 3 2 4 4 2 1 0 1 3 5 4 5 8 12 14 14 14 15 15 16 17 17 18 18 18 18 18 17 17 17 17 17 17 16 16 15 15 14
3 3 1 5 9 5 4 5 5 7 6 5 3 3 6 3 3 4 4 3 3 3 4 7 11 13 14 14 14 15 15 17 17 18 18 19 19 18 18 17 18 18 17 17 16 16 15 14 14
3 2 3 7 8 4 4 5 4 4 5 5 3 4 6 2 4 3 3 2 2 3 4 5 10 11 12 13 14 14 15 17 17 18 18 19 19 19 19 18 18 18 18 17 17 16 15 14 14
3 2 5 6 5 4 3 3 2 4 6 5 3 4 6 5 5 4 2 2 0 1 2 3 6 8 10 11 13 14 14 16 17 18 18 18 19 20 20 19 19 18 18 18 17 16 15 14 14
3 1 4 5 5 5 2 3 2 4 7 5 2 2 5 7 7 5 4 3 1 1 2 3 4 6 6 7 10 12 13 14 15 16 15 15 17 19 19 18 19 19 18 18 17 17 16 14 14
3 1 6 6 4 5 3 4 6 5 5 5 4 5 7 7 6 5 5 4 3 3 3 3 4 5 6 6 8 9 10 12 13 13 14 14 10 11 12 15 18 19 19 18 18 17 15 13 12
3 4 8 5 3 4 6 6 7 6 9 8 9 9 7 5 4 4 5 5 5 5 5 4 4 5 5 5 5 5 6 6 7 7 9 8 8 8 10 15 17 18 18 18 17 16 14 9 5
3 6 5 6 6 6 8 8 6 7 11 9 9 11 9 9 7 6 6 7 7 6 6 5 5 5 5 5 4 4 3 4 5 7 8 7 7 6 7 7 10 11 13 9 11 10 5 5 4
3 6 6 6 6 7 8 8 8 9 14 11 11 11 9 10 10 9 9 8 7 7 7 6 6 5 5 5 5 5 4 4 5 6 8 7 6 7 7 6 7 7 6 7 6 5 6 5 5
4 6 6 8 10 10 11 11 11 13 15 12 11 10 11 11 10 9 9 8 8 8 8 7 7 7 6 5 5 5 6 6 6 6 7 9 7 8 8 7 7 8 7 8 7 6 7 6 5
4 6 9 11 11 8 10 13 9 13 10 9 10 11 11 11 11 9 8 8 8 8 8 7 7 7 7 6 6 6 6 6 7 7 9 10 8 9 9 9 8 8 8 8 8 8 7 5 5
4 6 9 8 6 5 6 11 9 12 7 9 10 11 12 11 10 10 9 8 8 8 8 7 7 7 7 7 7 6 6 7 7 7 9 10 10 10 9 9 9 9 9 10 8 7 6 5 5
3 3 5 6 4 4 3 12 9 8 8 11 11 11 11 12 11 10 10 8 7 7 7 7 6 6 7 7 6 5 6 7 7 7 8 11 11 12 10 9 10 10 10 9 8 8 6 6 5
1 3 6 8 4 3 4 14 12 10 10 12 11 11 11 12 11 10 8 8 7 6 7 7 5 7 7 6 6 6 6 7 7 7 8 10 12 12 10 9 9 11 10 9 10 8 7 6 6
4 5 6 8 6 7 11 17 17 11 10 12 11 11 10 11 11 9 7 6 6 5 6 6 5 6 6 5 5 4 5 6 7 7 8 11 10 12 10 9 11 11 10 10 10 10 7 7 7
5 6 11 12 9 8 13 18 19 15 11 11 10 9 9 10 10 7 6 4 3 4 5 6 5 6 5 4 4 5 5 6 6 7 10 12 12 12 10 9 11 11 11 12 12 9 10 7 6
7 9 11 11 5 9 13 18 16 13 10 9 9 9 9 8 8 7 5 3 3 4 5 6 6 6 7 5 5 5 5 6 7 7 9 11 12 13 11 11 11 11 10 13 13 10 8 6 7
8 9 9 10 10 6 9 12 8 7 7 7 7 7 7 7 7 7 5 4 4 4 5 6 6 5 6 6 4 3 3 3 5 6 7 10 12 12 12 12 12 11 11 12 14 13 11 9 7
9 7 8 8 7 6 2 10 10 7 8 7 6 5 5 6 6 6 5 5 4 5 5 5 5 5 6 5 5 6 5 6 6 6 6 9 12 13 12 13 13 12 11 12 13 12 10 11 10
7 5 6 7 5 6 4 6 11 5 7 8 6 6 5 5 5 5 5 5 5 5 5 5 5 5 5 6 7 6 6 5 4 5 7 8 9 11 12 13 13 12 11 13 13 11 12 10 10
3 4 5 3 2 5 5 5 10 5 7 7 6 6 5 5 5 5 5 4 4 4 4 4 5 5 5 6 7 7 7 7 7 8 8 7 7 8 11 12 13 13 11 13 13 13 13 10 9
3 4 5 7 4 7 4 5 11 8 6 7 7 6 6 5 5 5 5 5 5 5 5 5 5 6 6 7 7 8 8 9 11 10 9 8 7 7 10 10 11 11 12 12 12 13 13 12 12
2 6 4 4 6 7 5 8 9 7 6 5 4 5 5 5 5 5 5 6 6 6 6 5 6 6 6 7 7 8 8 7 7 9 9 9 8 8 9 10 11 11 12 13 12 11 12 11 11
2 4 5 3 4 6 8 8 10 6 6 5 5 6 6 7 6 6 6 6 6 6 6 6 6 7 6 6 6 7 7 7 7 8 8 8 8 7 9 11 11 12 13 13 13 11 13 12 11
5 4 3 2 4 7 8 7 7 6 6 6 7 7 8 8 8 7 6 6 6 6 6 6 6 7 6 5 4 5 6 7 6 7 8 8 9 9 9 11 12 12 13 13 13 11 11 13 11
3 3 4 4 4 5 7 10 6 6 6 6 7 8 8 8 9 8 7 7 7 6 5 5 6 6 6 5 4 4 5 6 6 6 8 8 8 9 10 11 12 12 13 13 12 12 13 14 12
6 7 7 5 7 6 7 13 4 6 5 6 8 9 9 9 8 7 7 7 7 6 5 5 5 5 5 5 4 4 4 4 5 7 8 8 8 8 9 10 11 12 13 13 13 13 14 14 14
Wind_Direction
334 338 44 57 59 61 236 239 234 269 273 260 257 156 158 176 169 198 238 132 130 153 169 175 175 174 173 170 167 162 160 159 157 155 152 150 148 145 144 142 141 139 137 134 131 129 126 124 122
336 347 57 68 117 204 246 230 230 242 258 305 327 349 36 251 172 119 66 163 141 154 166 174 178 176 174 174 172 168 166 165 162 160 157 155 153 150 149 147 145 142 139 136 133 131 130 127 125
332 63 94 104 184 202 219 218 222 247 274 301 325 325 306 253 98 155 253 145 135 152 166 176 180 179 177 176 176 174 171 169 168 165 162 160 158 155 155 153 150 146 141 137 135 134 134 132 130
40 50 64 176 231 227 223 270 301 308 321 342 354 315 316 326 118 97 47 120 130 157 170 177 181 184 181 180 180 179 176 175 174 172 168 166 163 159 157 155 151 145 142 140 139 138 137 136 133
61 86 159 237 241 243 252 279 295 297 301 313 333 296 293 311 60 64 55 87 135 159 176 182 184 186 186 185 184 183 181 181 180 178 175 171 166 162 158 154 151 147 145 144 144 143 142 138 136
58 87 186 235 244 250 263 281 289 292 301 312 329 304 273 322 30 26 45 59 150 166 184 186 188 189 190 191 189 186 186 185 184 182 178 174 169 165 161 157 154 151 151 150 150 149 146 143 141
112 143 221 242 265 269 278 302 302 302 304 294 298 296 287 318 342 346 2 13 49 170 180 192 195 191 195 198 196 193 191 188 186 185 182 176 172 169 165 161 158 156 154 154 153 152 149 147 144
129 126 247 251 256 260 315 332 300 303 284 290 303 273 282 303 324 337 347 355 343 234 208 210 209 195 193 197 199 198 196 192 189 187 183 177 174 172 168 164 162 160 159 158 157 154 154 152 148
90 147 237 240 252 269 321 326 305 296 285 297 284 263 267 287 319 338 333 328 321 293 236 221 219 211 200 198 200 196 196 194 191 187 180 175 175 172 169 166 164 164 163 162 161 158 157 153 150
115 209 236 241 260 287 299 293 297 306 299 295 297 294 294 296 300 300 286 283 280 281 260 225 217 217 210 206 197 196 197 192 191 187 182 179 172 173 169 168 166 166 165 165 163 161 157 147 140
187 224 256 270 277 287 292 286 272 275 277 270 281 294 301 298 288 273 260 253 251 250 261 247 221 216 213 208 199 195 191 188 189 184 181 176 171 167 169 167 167 164 162 161 160 155 145 144 145
255 259 264 280 301 295 284 288 279 252 259 265 263 269 277 280 277 270 263 259 255 255 253 255 228 217 216 212 203 196 189 188 189 186 182 175 175 173 171 172 166 162 160 157 155 153 152 156 157
267 278 289 292 295 283 281 271 270 263 265 270 271 270 269 272 268 265 262 262 256 254 254 253 237 216 212 212 210 202 194 193 193 187 186 183 178 180 174 172 172 166 161 162 160 160 163 166 165
274 290 293 289 283 275 272 276 268 266 269 274 275 272 268 267 266 266 266 264 259 250 249 249 248 223 212 208 210 208 198 194 193 191 191 188 183 182 179 173 177 171 167 167 166 167 169 170 167
306 306 302 277 263 260 285 282 247 261 278 276 272 269 269 265 263 257 254 251 252 253 248 247 252 232 214 210 207 209 203 196 196 195 193 190 187 183 184 179 179 176 171 167 165 164 162 165 166
324 315 297 286 272 262 276 275 263 274 279 276 274 271 270 269 263 260 255 252 251 254 251 244 255 245 221 212 209 206 206 201 200 196 193 190 189 185 182 185 183 177 171 168 167 166 163 167 166
322 287 273 290 271 282 262 273 275 278 273 274 273 271 271 273 273 269 257 252 252 248 249 240 243 243 222 216 213 211 206 204 200 196 193 190 190 188 183 186 184 176 174 171 171 168 162 164 165
260 267 271 274 282 295 280 275 284 282 267 268 273 274 270 269 271 272 267 260 258 256 251 239 234 241 225 214 216 213 211 208 203 197 193 189 188 189 184 187 185 180 177 173 172 167 163 163 163
251 261 274 275 281 293 277 281 285 285 277 272 274 272 269 269 269 272 269 264 265 277 270 248 234 243 224 211 209 211 212 212 207 203 196 192 188 186 187 188 186 185 184 177 170 165 164 162 153
256 272 278 288 292 295 284 282 279 275 265 260 265 267 267 275 283 281 278 268 261 258 270 257 236 235 223 214 211 209 211 214 206 203 199 195 191 187 188 187 188 188 186 178 174 164 161 163 163
261 254 264 281 309 293 301 293 279 281 280 284 275 262 257 263 271 278 281 266 268 271 270 268 254 250 234 220 216 216 210 208 203 204 200 198 194 192 190 191 187 187 189 186 179 173 166 166 171
272 251 259 282 311 295 337 297 285 284 298 298 295 286 271 276 275 273 276 271 264 267 271 262 254 253 245 220 211 210 211 218 215 204 205 201 196 192 192 193 190 187 191 189 183 177 170 165 170
247 272 275 279 269 283 259 248 282 300 289 292 293 287 281 282 285 284 274 264 264 265 271 268 263 257 251 229 215 217 221 223 218 203 201 205 201 195 193 196 194 190 193 191 182 176 175 174 173
269 341 323 355 57 274 242 223 279 271 266 286 294 288 278 281 289 300 300 291 288 290 285 279 274 266 263 242 225 219 229 225 215 206 203 201 202 198 195 196 196 191 193 192 184 179 178 180 176
67 49 351 345 347 257 268 247 255 264 269 268 276 284 283 284 299 310 317 311 306 298 292 295 284 279 269 249 234 225 226 223 210 201 202 201 201 202 197 196 195 191 195 194 184 182 182 181 182
194 146 177 253 262 285 293 251 256 271 288 296 296 303 312 311 303 299 298 296 296 295 287 294 288 279 272 253 241 227 218 221 213 204 200 203 204 204 198 200 194 192 193 192 188 185 186 183 186
184 202 192 194 272 273 265 274 293 296 308 319 325 336 326 308 303 300 299 295 293 296 292 285 284 276 273 264 253 231 216 223 222 210 206 206 205 202 198 200 194 194 193 191 188 190 188 185 189
188 169 113 162 263 270 276 265 259 286 295 311 320 320 311 311 308 301 299 293 289 288 289 295 284 280 279 275 266 253 225 222 221 213 212 210 206 199 197 203 198 196 194 190 192 188 187 188 189
188 178 179 193 211 237 272 265 228 243 269 294 305 309 308 310 306 298 295 296 292 294 298 301 298 288 290 281 272 260 244 226 220 220 219 206 201 198 200 202 200 195 195 190 191 190 187 190 189
203 202 179 205 242 230 258 271 250 248 273 293 303 306 308 305 301 296 295 300 305 299 295 291 296 295 285 280 273 261 256 239 225 226 223 209 202 201 204 204 200 196 194 192 193 191 190 191 191